This demonstration page uses our WeatherBlox Daily Observations layout. Learn more.

Left ArrowRight Arrow

34.02893, -84.19858

Hourly Observations for November 30, 2022

Temp ( °F °C ) Dew Point ( °F °C ) Humidity (%) Winds ( mph kmh ) Pressure ( in mb ) Visibility ( mi km ) Precip ( " mm )
12:03 am 00:03 Cloudy with Light Rain 56 13.3 55 12.8 97 97 VRB 3 6 30.00 1016 3 5 0.10 2.54
12:08 am 00:08 Cloudy with Thunderstorms 56 13.3 55 12.8 97 97 VRB 6 9 30.00 1016 4 6 0.13 3.30
12:12 am 00:12 Cloudy with Thunderstorms 56 13.3 55 12.8 97 97 VRB 6 9 29.99 1016 3 4 0.17 4.32
12:23 am 00:23 Cloudy with Nearby Thunderstorms 56 13.3 55 12.8 97 97 NNW 18 30 30.06 1018 2 3 0.32 8.13
12:43 am 00:43 Cloudy with Light Rain 56 13.3 55 12.8 97 97 VRB 5 7 30.03 1017 3 5 0.53 13.46
12:53 am 00:53 Cloudy with Light Rain 56 13.3 55 12.8 97 97 E 5 7 30.01 1016 5 8 0.53 13.46
1:02 am 01:02 Cloudy with Heavy Rain 55 12.8 55 12.8 100 100 Calm 30.03 1017 2 3 0.06 1.52
1:24 am 01:24 Cloudy with Rain 55 12.8 54 12.2 96 96 N 9 15 30.04 1017 3 5 0.18 4.57
1:40 am 01:40 Cloudy with Rain 54 12.2 54 12.2 100 100 NNE 7 11 30.02 1017 3 5 0.33 8.38
1:50 am 01:50 Cloudy with Rain 54 12 54 12 100 100 ENE 5 7 30.01 1016 3 4 0.38 9.65
1:53 am 01:53 Cloudy with Heavy Rain 54 12.2 54 12.2 100 100 ENE 5 7 30.00 1016 3 4 0.40 10.16
2:03 am 02:03 Cloudy with Rain 54 12.2 54 12.2 100 100 VRB 5 7 30.01 1016 4 6 0.02 0.51
2:15 am 02:15 Cloudy with Light Rain 54 12.2 54 12.2 100 100 VRB 6 9 29.99 1016 6 10 0.03 0.76
2:26 am 02:26 Cloudy with Light Rain 54 12.2 54 12.2 100 100 VRB 5 7 29.96 1015 5 8 0.05 1.27
2:34 am 02:34 Cloudy with Light Rain 54 12.2 53 11.7 97 97 undefined N/A 29.95 1014 6 10 0.05 1.27
2:53 am 02:53 Cloudy with Rain 54 12.2 53 11.7 97 97 VRB 5 7 29.93 1014 3 5 0.09 2.29
3:23 am 03:23 Cloudy with Thunderstorms 54 12.2 53 11.7 97 97 VRB 7 11 29.91 1013 7 11 0.04 1.02
3:33 am 03:33 Cloudy with Strong Thunderstorms 53 11.7 53 11.7 100 100 undefined N/A 29.90 1012 2 3 0.16 4.06
3:45 am 03:45 Cloudy with Nearby Thunderstorms 53 11.7 53 11.7 100 100 VRB 5 7 29.90 1013 3 5 0.23 5.84
3:53 am 03:53 Cloudy with Nearby Thunderstorms 53 11.7 53 11.7 100 100 NNE 8 13 29.86 1011 2 2 0.37 9.40
4:00 am 04:00 Cloudy with Nearby Thunderstorms 53 11.7 53 11.7 100 100 VRB 7 11 29.85 1011 2 3 0.04 1.02
4:11 am 04:11 Cloudy with Nearby Thunderstorms 54 12.2 53 11.7 97 97 VRB 3 6 29.86 1011 4 6 0.08 2.03
4:16 am 04:16 Cloudy with Thunderstorms 54 12.2 53 11.7 97 97 Calm 29.91 1013 3 4 0.14 3.56
4:23 am 04:23 Cloudy with Strong Thunderstorms 54 12.2 54 12.2 100 100 VRB 3 6 29.91 1013 1 1 0.34 8.64
4:30 am 04:30 Cloudy with Nearby Thunderstorms 55 12.8 54 12.2 96 96 SSE 6 9 29.92 1013 1 2 0.40 10.16
4:41 am 04:41 Cloudy with Nearby Thunderstorms 55 12.8 55 12.8 100 100 Calm 29.92 1013 3 4 0.46 11.68
4:53 am 04:53 Cloudy with Heavy Rain 55 12.8 54 12.2 96 96 undefined N/A 29.92 1013 3 5 0.52 13.21
5:02 am 05:02 Cloudy with Nearby Thunderstorms 55 12.8 54 12.2 96 96 undefined N/A 29.93 1014 4 6 0.04 1.02
5:20 am 05:20 Cloudy with Thunderstorms 54 12.2 54 12.2 100 100 N 10 17 29.96 1015 4 6 0.11 2.79
5:30 am 05:30 Cloudy with Thunderstorms 54 12.2 53 11.7 97 97 NNE 7 11 29.96 1015 4 6 0.15 3.81
5:35 am 05:35 Cloudy with Rain 54 12.2 53 11.7 97 97 NNE 7 11 29.96 1015 4 6 0.18 4.57
5:42 am 05:42 Cloudy with Nearby Thunderstorms 54 12.2 53 11.7 97 97 VRB 6 9 29.97 1015 5 8 0.20 5.08
5:53 am 05:53 Cloudy with Thunderstorms 54 12.2 53 11.7 97 97 VRB 6 9 29.95 1014 5 8 0.24 6.10
6:09 am 06:09 Cloudy with Rain 53 11.7 53 11.7 100 100 VRB 7 11 29.93 1014 4 6 0.07 1.78
6:23 am 06:23 Cloudy with Nearby Thunderstorms 53 11.7 53 11.7 100 100 ESE 5 7 29.96 1015 4 6 0.13 3.30
6:36 am 06:36 Cloudy with Rain 54 12.2 53 11.7 97 97 SE 3 6 29.95 1014 3 5 0.19 4.83
6:44 am 06:44 Cloudy with Rain 54 12.2 53 11.7 97 97 SSE 5 7 29.94 1014 4 6 0.22 5.59
6:53 am 06:53 Cloudy with Light Rain 54 12.2 53 11.7 97 97 S 3 6 29.94 1014 7 11 0.23 5.84
7:53 am 07:53 Cloudy 55 12.8 54 12.2 96 96 Calm 29.98 1015 10 16 0.01 0.13
8:53 am 08:53 Cloudy 56 13.3 55 12.8 97 97 Calm 30.00 1016 7 11 0.00 0.00
9:53 am 09:53 Cloudy 59 15 58 14.4 96 96 SSW 7 11 30.03 1017 8 13 0.00 0.00
10:26 am 10:26 Cloudy 60 15.6 59 15 96 96 WSW 8 13 30.04 1017 10 16 0.00 0.00
10:53 am 10:53 Cloudy 61 16.1 59 15 93 93 SW 7 11 30.04 1017 10 16 0.00 0.00
11:33 am 11:33 Mostly Cloudy 63 17.2 60 15.6 90 90 WSW 8 13 30.03 1017 10 16 0.00 0.00
11:53 am 11:53 Partly Cloudy 65 18.3 59 15 81 81 W 8 13 30.03 1017 10 16 0.00 0.00
12:08 pm 12:08 Mostly Cloudy 67 19.4 60 15.6 79 79 W 12 19 30.03 1017 10 16 0.00 0.00
12:32 pm 12:32 Mostly Cloudy 66 18.9 54 12.2 65 65 WNW 13 20 30.03 1017 10 16 0.00 0.00
12:53 pm 12:53 Partly Cloudy 65 18.3 53 11.7 65 65 NW 12 19 30.04 1017 10 16 0.00 0.00
1:53 pm 13:53 Mostly Sunny 62 16.7 49 9.4 62 62 NW 16 26 30.07 1018 10 16 0.00 0.00
2:53 pm 14:53 Sunny 59 15 43 6.1 55 55 NW 16 26 30.11 1020 10 16 0.00 0.00
3:53 pm 15:53 Sunny 56 13.3 36 2.2 47 47 NNW 16 26 30.14 1021 10 16 0.00 0.00
4:53 pm 16:53 Sunny 53 11.7 32 0 44 44 NNW 16 26 30.18 1022 10 16 0.00 0.00
5:53 pm 17:53 Clear 50 10 26 -3.3 39 39 undefined N/A 30.22 1023 10 16 0.00 0.00
6:53 pm 18:53 Clear 49 9.4 26 -3.3 41 41 undefined N/A 30.25 1024 10 16 0.00 0.00
7:53 pm 19:53 Clear 46 7.8 26 -3.3 45 45 undefined N/A 30.28 1025 10 16 0.00 0.00
8:53 pm 20:53 Clear 44 6.7 24 -4.4 45 45 NNW 14 22 30.30 1026 10 16 0.00 0.00
9:53 pm 21:53 Clear 43 6.1 22 -5.6 43 43 NNW 10 17 30.32 1027 10 16 0.00 0.00
10:53 pm 22:53 Clear 41 5 22 -5.6 46 46 NW 12 19 30.33 1027 10 16 0.00 0.00
11:53 pm 23:53 Clear 39 3.9 23 -5 52 52 NW 12 19 30.33 1027 10 16 0.00 0.00

Powered by AerisWeather